QPF
0.00 0.00 0.00 0.00 0.00 0.00 0.00 0.00 0.00 0.00 0.00 0.00 0.00 0.00 0.00 0.00 0.00 0.00 0.00 0.00 0.01 0.01 0.01 0.02 0.05 0.05 0.05 0.05 0.05 0.06 0.07 0.06 0.04 0.03 0.03 0.03 0.02 0.03 0.04 0.05 0.06 0.05 0.05 0.05 0.04 0.03 0.02 0.02 0.03
0.00 0.00 0.00 0.00 0.00 0.00 0.00 0.00 0.00 0.00 0.00 0.00 0.00 0.00 0.00 0.00 0.00 0.00 0.00 0.01 0.01 0.01 0.01 0.02 0.05 0.08 0.08 0.07 0.07 0.08 0.08 0.07 0.07 0.06 0.05 0.04 0.03 0.03 0.03 0.04 0.04 0.05 0.05 0.05 0.04 0.03 0.02 0.02 0.02
0.00 0.00 0.00 0.00 0.00 0.00 0.00 0.00 0.00 0.00 0.00 0.00 0.00 0.00 0.00 0.00 0.00 0.01 0.01 0.01 0.02 0.02 0.02 0.03 0.06 0.08 0.07 0.07 0.06 0.05 0.07 0.08 0.08 0.07 0.07 0.06 0.04 0.03 0.02 0.03 0.03 0.03 0.03 0.04 0.04 0.03 0.03 0.02 0.01
0.01 0.01 0.00 0.00 0.00 0.00 0.00 0.00 0.00 0.00 0.00 0.00 0.00 0.00 0.00 0.00 0.00 0.01 0.01 0.01 0.02 0.03 0.03 0.04 0.06 0.07 0.07 0.07 0.06 0.05 0.05 0.06 0.08 0.08 0.07 0.06 0.06 0.04 0.03 0.02 0.02 0.02 0.02 0.02 0.04 0.04 0.03 0.02 0.01
0.01 0.01 0.00 0.00 0.00 0.00 0.00 0.00 0.00 0.00 0.00 0.00 0.00 0.00 0.00 0.00 0.00 0.01 0.01 0.02 0.03 0.03 0.04 0.05 0.07 0.08 0.08 0.08 0.06 0.05 0.05 0.06 0.06 0.08 0.07 0.06 0.06 0.06 0.05 0.03 0.02 0.02 0.02 0.02 0.03 0.03 0.03 0.02 0.01
0.01 0.01 0.00 0.00 0.00 0.00 0.00 0.00 0.00 0.00 0.00 0.00 0.00 0.00 0.00 0.00 0.01 0.01 0.01 0.02 0.03 0.04 0.06 0.06 0.06 0.09 0.11 0.09 0.06 0.05 0.05 0.06 0.05 0.06 0.07 0.06 0.06 0.07 0.06 0.06 0.04 0.03 0.02 0.02 0.02 0.03 0.03 0.02 0.02
0.01 0.01 0.00 0.00 0.00 0.00 0.00 0.00 0.00 0.00 0.00 0.00 0.00 0.00 0.00 0.00 0.01 0.01 0.01 0.02 0.04 0.05 0.07 0.07 0.06 0.07 0.11 0.12 0.08 0.05 0.06 0.06 0.06 0.05 0.06 0.08 0.07 0.06 0.06 0.07 0.07 0.06 0.04 0.03 0.02 0.03 0.03 0.02 0.02
0.01 0.01 0.00 0.00 0.00 0.00 0.00 0.00 0.00 0.00 0.00 0.00 0.00 0.00 0.00 0.00 0.00 0.01 0.01 0.01 0.03 0.04 0.07 0.11 0.09 0.08 0.09 0.10 0.10 0.08 0.06 0.05 0.06 0.06 0.04 0.06 0.06 0.07 0.08 0.07 0.07 0.06 0.04 0.04 0.03 0.03 0.03 0.03 0.02
0.01 0.01 0.00 0.00 0.00 0.00 0.00 0.00 0.00 0.00 0.00 0.00 0.00 0.00 0.00 0.00 0.00 0.01 0.01 0.01 0.01 0.02 0.05 0.11 0.13 0.11 0.11 0.13 0.13 0.11 0.08 0.06 0.06 0.06 0.06 0.04 0.04 0.05 0.06 0.05 0.06 0.06 0.05 0.05 0.04 0.03 0.03 0.04 0.03
0.01 0.01 0.00 0.00 0.00 0.00 0.00 0.00 0.00 0.00 0.00 0.00 0.00 0.00 0.00 0.00 0.00 0.01 0.01 0.01 0.01 0.02 0.03 0.07 0.12 0.11 0.12 0.13 0.15 0.13 0.10 0.08 0.07 0.04 0.05 0.06 0.04 0.04 0.04 0.03 0.05 0.06 0.05 0.05 0.05 0.04 0.03 0.03 0.02
0.01 0.01 0.00 0.01 0.01 0.00 0.00 0.00 0.00 0.00 0.00 0.00 0.00 0.00 0.00 0.00 0.00 0.00 0.00 0.01 0.01 0.01 0.02 0.05 0.11 0.13 0.11 0.13 0.13 0.11 0.09 0.08 0.07 0.04 0.04 0.05 0.06 0.05 0.03 0.02 0.03 0.04 0.05 0.05 0.05 0.05 0.03 0.02 0.02
0.01 0.01 0.01 0.01 0.01 0.01 0.00 0.00 0.00 0.00 0.00 0.00 0.00 0.00 0.00 0.01 0.00 0.00 0.01 0.01 0.01 0.01 0.02 0.04 0.07 0.13 0.12 0.12 0.15 0.13 0.12 0.09 0.07 0.05 0.04 0.04 0.05 0.05 0.04 0.02 0.01 0.02 0.03 0.04 0.03 0.03 0.03 0.03 0.02
0.01 0.01 0.01 0.01 0.01 0.01 0.01 0.00 0.00 0.00 0.00 0.00 0.00 0.00 0.00 0.00 0.00 0.00 0.00 0.01 0.01 0.01 0.02 0.02 0.05 0.10 0.11 0.09 0.11 0.12 0.12 0.10 0.07 0.06 0.05 0.05 0.04 0.05 0.05 0.03 0.02 0.02 0.02 0.03 0.03 0.03 0.03 0.03 0.02
0.01 0.01 0.01 0.01 0.01 0.01 0.01 0.01 0.00 0.00 0.00 0.00 0.00 0.00 0.00 0.00 0.01 0.01 0.01 0.01 0.01 0.01 0.01 0.02 0.04 0.08 0.08 0.09 0.08 0.09 0.10 0.10 0.08 0.07 0.06 0.06 0.06 0.05 0.06 0.04 0.02 0.02 0.02 0.02 0.03 0.04 0.04 0.03 0.03
0.01 0.02 0.01 0.01 0.01 0.01 0.01 0.01 0.01 0.01 0.00 0.00 0.00 0.00 0.00 0.00 0.01 0.02 0.01 0.02 0.02 0.01 0.01 0.02 0.03 0.06 0.07 0.08 0.08 0.07 0.07 0.10 0.10 0.08 0.06 0.07 0.07 0.07 0.06 0.06 0.04 0.03 0.02 0.03 0.03 0.04 0.04 0.04 0.04
0.01 0.02 0.02 0.02 0.01 0.01 0.01 0.01 0.01 0.01 0.01 0.01 0.00 0.00 0.00 0.00 0.01 0.01 0.02 0.02 0.03 0.01 0.01 0.01 0.01 0.04 0.06 0.06 0.06 0.07 0.07 0.08 0.11 0.09 0.06 0.06 0.07 0.07 0.07 0.06 0.05 0.04 0.03 0.02 0.03 0.03 0.03 0.03 0.03
0.01 0.02 0.02 0.02 0.02 0.02 0.01 0.01 0.01 0.01 0.01 0.01 0.01 0.01 0.00 0.01 0.01 0.01 0.01 0.02 0.03 0.02 0.01 0.01 0.01 0.02 0.04 0.04 0.05 0.06 0.07 0.09 0.10 0.10 0.08 0.06 0.06 0.06 0.07 0.06 0.06 0.05 0.04 0.03 0.03 0.03 0.04 0.05 0.05
0.01 0.01 0.02 0.03 0.03 0.02 0.01 0.01 0.01 0.01 0.01 0.01 0.01 0.01 0.01 0.01 0.01 0.01 0.01 0.02 0.03 0.03 0.02 0.01 0.01 0.02 0.02 0.03 0.05 0.07 0.08 0.09 0.09 0.09 0.09 0.08 0.07 0.06 0.06 0.07 0.07 0.07 0.05 0.04 0.03 0.02 0.03 0.04 0.05
0.01 0.01 0.02 0.03 0.03 0.01 0.00 0.00 0.01 0.01 0.01 0.01 0.00 0.01 0.01 0.01 0.01 0.01 0.01 0.02 0.03 0.03 0.02 0.01 0.01 0.01 0.01 0.02 0.04 0.06 0.09 0.11 0.09 0.08 0.09 0.10 0.09 0.07 0.06 0.07 0.09 0.09 0.07 0.06 0.04 0.03 0.03 0.04 0.03
0.01 0.02 0.02 0.04 0.02 0.01 0.00 0.00 0.00 0.00 0.01 0.01 0.00 0.00 0.00 0.00 0.00 0.01 0.01 0.01 0.02 0.02 0.02 0.02 0.02 0.02 0.02 0.01 0.02 0.05 0.06 0.09 0.10 0.08 0.08 0.09 0.09 0.08 0.07 0.07 0.08 0.11 0.11 0.08 0.07 0.06 0.05 0.04 0.02
0.02 0.03 0.02 0.03 0.02 0.01 0.00 0.00 0.00 0.00 0.01 0.01 0.00 0.00 0.00 0.00 0.00 0.00 0.01 0.01 0.01 0.02 0.02 0.02 0.02 0.02 0.02 0.02 0.02 0.04 0.05 0.06 0.08 0.09 0.08 0.07 0.06 0.05 0.06 0.06 0.06 0.07 0.09 0.09 0.08 0.08 0.07 0.05 0.03
0.02 0.03 0.02 0.02 0.01 0.02 0.01 0.01 0.00 0.00 0.01 0.01 0.01 0.01 0.00 0.00 0.00 0.00 0.01 0.01 0.01 0.01 0.02 0.02 0.02 0.03 0.03 0.02 0.03 0.04 0.04 0.05 0.08 0.09 0.09 0.08 0.06 0.04 0.04 0.04 0.04 0.04 0.05 0.07 0.07 0.06 0.06 0.05 0.04
0.02 0.03 0.02 0.02 0.01 0.01 0.00 0.00 0.00 0.00 0.01 0.01 0.01 0.01 0.01 0.00 0.00 0.00 0.01 0.01 0.01 0.01 0.02 0.03 0.03 0.04 0.04 0.04 0.04 0.04 0.03 0.03 0.03 0.05 0.08 0.09 0.07 0.06 0.05 0.04 0.04 0.04 0.04 0.05 0.06 0.06 0.05 0.04 0.04
0.01 0.02 0.02 0.02 0.01 0.01 0.00 0.00 0.01 0.01 0.01 0.01 0.01 0.00 0.01 0.00 0.00 0.00 0.00 0.01 0.02 0.02 0.02 0.02 0.03 0.04 0.04 0.03 0.03 0.03 0.02 0.01 0.02 0.03 0.04 0.06 0.07 0.07 0.05 0.04 0.05 0.05 0.05 0.04 0.05 0.06 0.05 0.04 0.03
0.01 0.01 0.03 0.02 0.01 0.01 0.00 0.01 0.02 0.02 0.01 0.01 0.01 0.01 0.01 0.01 0.01 0.01 0.01 0.01 0.02 0.02 0.02 0.02 0.02 0.03 0.03 0.02 0.02 0.02 0.02 0.01 0.01 0.02 0.03 0.03 0.04 0.05 0.04 0.04 0.04 0.04 0.05 0.05 0.05 0.05 0.05 0.05 0.05
0.01 0.01 0.01 0.01 0.01 0.00 0.00 0.01 0.02 0.03 0.02 0.02 0.02 0.01 0.01 0.02 0.04 0.04 0.01 0.01 0.01 0.02 0.03 0.03 0.03 0.02 0.02 0.02 0.01 0.01 0.01 0.01 0.02 0.02 0.03 0.03 0.03 0.03 0.04 0.03 0.03 0.03 0.03 0.05 0.04 0.04 0.05 0.05 0.06
0.01 0.01 0.00 0.01 0.01 0.00 0.00 0.00 0.01 0.01 0.02 0.02 0.03 0.03 0.03 0.03 0.04 0.04 0.02 0.01 0.01 0.02 0.04 0.04 0.04 0.03 0.03 0.02 0.02 0.01 0.01 0.02 0.02 0.02 0.03 0.02 0.02 0.02 0.03 0.02 0.02 0.02 0.03 0.04 0.04 0.03 0.03 0.03 0.03
0.01 0.01 0.01 0.02 0.01 0.00 0.00 0.00 0.00 0.01 0.02 0.02 0.02 0.03 0.03 0.04 0.03 0.03 0.02 0.02 0.03 0.04 0.04 0.04 0.04 0.04 0.04 0.03 0.02 0.02 0.02 0.02 0.02 0.01 0.02 0.02 0.02 0.03 0.04 0.03 0.02 0.02 0.02 0.03 0.03 0.03 0.03 0.02 0.02
0.01 0.01 0.01 0.01 0.01 0.01 0.00 0.00 0.00 0.01 0.01 0.01 0.01 0.02 0.02 0.03 0.04 0.04 0.03 0.03 0.03 0.04 0.04 0.04 0.05 0.05 0.04 0.05 0.04 0.04 0.03 0.03 0.03 0.03 0.02 0.02 0.03 0.03 0.04 0.04 0.03 0.03 0.03 0.04 0.04 0.04 0.04 0.04 0.03
0.01 0.01 0.01 0.02 0.01 0.01 0.01 0.00 0.00 0.00 0.01 0.01 0.01 0.01 0.01 0.01 0.02 0.02 0.03 0.03 0.04 0.03 0.03 0.03 0.04 0.05 0.05 0.05 0.05 0.04 0.05 0.05 0.05 0.06 0.05 0.04 0.04 0.04 0.05 0.06 0.07 0.07 0.06 0.06 0.06 0.05 0.04 0.03 0.03
MSLP
1010.74 1011.45 1012.28 1013.11 1013.81 1014.28 1014.45 1014.30 1013.86 1013.22 1012.50 1011.81 1011.23 1010.81 1010.55 1010.42 1010.35 1010.29 1010.18 1010.02 1009.83 1009.65 1009.54 1009.54 1009.67 1009.93 1010.27 1010.64 1010.98 1011.25 1011.42 1011.50 1011.53 1011.56 1011.62 1011.76 1011.96 1012.22 1012.51 1012.78 1013.01 1013.17 1013.26 1013.31 1013.35 1013.40 1013.49 1013.63 1013.83
1011.21 1012.01 1012.88 1013.67 1014.27 1014.56 1014.51 1014.11 1013.44 1012.59 1011.72 1010.94 1010.34 1009.95 1009.77 1009.74 1009.79 1009.85 1009.85 1009.79 1009.69 1009.58 1009.53 1009.57 1009.76 1010.05 1010.44 1010.85 1011.23 1011.54 1011.76 1011.87 1011.93 1011.96 1012.02 1012.13 1012.31 1012.53 1012.78 1013.01 1013.21 1013.35 1013.44 1013.48 1013.50 1013.53 1013.60 1013.71 1013.87
1011.78 1012.63 1013.47 1014.17 1014.61 1014.70 1014.42 1013.79 1012.93 1011.94 1010.98 1010.17 1009.59 1009.26 1009.16 1009.23 1009.39 1009.54 1009.64 1009.66 1009.62 1009.57 1009.57 1009.67 1009.89 1010.22 1010.63 1011.08 1011.49 1011.84 1012.08 1012.23 1012.30 1012.35 1012.40 1012.49 1012.63 1012.82 1013.03 1013.23 1013.40 1013.53 1013.62 1013.67 1013.69 1013.73 1013.78 1013.88 1014.01
1012.40 1013.25 1014.01 1014.57 1014.81 1014.69 1014.20 1013.40 1012.40 1011.35 1010.37 1009.59 1009.08 1008.84 1008.83 1008.99 1009.23 1009.45 1009.60 1009.68 1009.70 1009.70 1009.73 1009.86 1010.10 1010.45 1010.87 1011.32 1011.75 1012.10 1012.37 1012.54 1012.64 1012.69 1012.75 1012.83 1012.94 1013.10 1013.27 1013.44 1013.60 1013.73 1013.82 1013.89 1013.94 1013.99 1014.06 1014.14 1014.26
1013.00 1013.78 1014.43 1014.81 1014.86 1014.54 1013.89 1012.97 1011.91 1010.86 1009.95 1009.26 1008.86 1008.72 1008.81 1009.05 1009.34 1009.60 1009.79 1009.89 1009.94 1009.96 1010.03 1010.17 1010.41 1010.75 1011.16 1011.59 1012.00 1012.35 1012.62 1012.81 1012.92 1013.00 1013.07 1013.16 1013.26 1013.39 1013.54 1013.70 1013.84 1013.97 1014.08 1014.17 1014.25 1014.32 1014.40 1014.49 1014.59
1013.49 1014.17 1014.67 1014.87 1014.73 1014.26 1013.49 1012.53 1011.50 1010.53 1009.74 1009.20 1008.93 1008.91 1009.08 1009.37 1009.68 1009.96 1010.15 1010.26 1010.32 1010.36 1010.43 1010.58 1010.81 1011.12 1011.50 1011.89 1012.26 1012.59 1012.85 1013.05 1013.20 1013.31 1013.41 1013.51 1013.62 1013.75 1013.88 1014.02 1014.15 1014.28 1014.39 1014.50 1014.60 1014.69 1014.79 1014.88 1014.97
1013.79 1014.36 1014.69 1014.72 1014.43 1013.85 1013.04 1012.10 1011.17 1010.35 1009.72 1009.35 1009.23 1009.32 1009.56 1009.87 1010.18 1010.43 1010.61 1010.71 1010.77 1010.82 1010.90 1011.04 1011.26 1011.54 1011.87 1012.21 1012.54 1012.84 1013.09 1013.30 1013.48 1013.64 1013.78 1013.92 1014.05 1014.18 1014.30 1014.42 1014.54 1014.65 1014.76 1014.86 1014.97 1015.08 1015.17 1015.25 1015.32
1013.90 1014.33 1014.51 1014.40 1014.00 1013.37 1012.57 1011.73 1010.93 1010.29 1009.86 1009.66 1009.67 1009.85 1010.12 1010.43 1010.70 1010.92 1011.06 1011.14 1011.20 1011.26 1011.35 1011.50 1011.71 1011.96 1012.24 1012.54 1012.82 1013.10 1013.35 1013.59 1013.80 1014.01 1014.21 1014.39 1014.55 1014.69 1014.80 1014.90 1014.98 1015.07 1015.15 1015.24 1015.34 1015.43 1015.51 1015.58 1015.62
1013.82 1014.12 1014.18 1013.97 1013.52 1012.88 1012.15 1011.43 1010.81 1010.36 1010.11 1010.06 1010.18 1010.40 1010.67 1010.93 1011.15 1011.31 1011.41 1011.47 1011.53 1011.61 1011.72 1011.89 1012.10 1012.33 1012.59 1012.85 1013.11 1013.37 1013.63 1013.89 1014.16 1014.42 1014.67 1014.90 1015.08 1015.23 1015.34 1015.41 1015.46 1015.51 1015.55 1015.61 1015.68 1015.75 1015.81 1015.84 1015.86
1013.62 1013.83 1013.80 1013.53 1013.07 1012.48 1011.85 1011.28 1010.83 1010.55 1010.46 1010.52 1010.68 1010.91 1011.14 1011.34 1011.48 1011.56 1011.61 1011.66 1011.72 1011.83 1011.97 1012.17 1012.39 1012.63 1012.87 1013.12 1013.37 1013.63 1013.90 1014.20 1014.51 1014.82 1015.12 1015.39 1015.61 1015.76 1015.86 1015.91 1015.92 1015.93 1015.94 1015.96 1016.00 1016.03 1016.06 1016.06 1016.04
1013.43 1013.57 1013.49 1013.20 1012.77 1012.25 1011.74 1011.31 1011.02 1010.88 1010.88 1011.00 1011.18 1011.36 1011.52 1011.63 1011.67 1011.69 1011.69 1011.72 1011.79 1011.92 1012.10 1012.32 1012.57 1012.82 1013.07 1013.32 1013.57 1013.84 1014.13 1014.46 1014.81 1015.17 1015.52 1015.81 1016.05 1016.21 1016.31 1016.34 1016.33 1016.31 1016.29 1016.29 1016.29 1016.30 1016.29 1016.26 1016.20
1013.34 1013.45 1013.35 1013.09 1012.71 1012.29 1011.89 1011.58 1011.40 1011.35 1011.40 1011.52 1011.66 1011.77 1011.84 1011.84 1011.80 1011.74 1011.70 1011.71 1011.78 1011.92 1012.13 1012.37 1012.64 1012.91 1013.17 1013.42 1013.69 1013.97 1014.29 1014.65 1015.03 1015.42 1015.79 1016.11 1016.36 1016.53 1016.63 1016.66 1016.65 1016.63 1016.60 1016.59 1016.57 1016.56 1016.53 1016.47 1016.38
1013.46 1013.56 1013.48 1013.26 1012.95 1012.62 1012.32 1012.10 1011.98 1011.96 1012.01 1012.09 1012.15 1012.18 1012.14 1012.06 1011.93 1011.81 1011.73 1011.72 1011.78 1011.92 1012.13 1012.37 1012.64 1012.91 1013.18 1013.44 1013.72 1014.03 1014.37 1014.74 1015.14 1015.54 1015.92 1016.25 1016.51 1016.69 1016.80 1016.85 1016.87 1016.87 1016.86 1016.86 1016.85 1016.83 1016.78 1016.70 1016.58
1013.84 1013.95 1013.90 1013.74 1013.50 1013.24 1013.01 1012.84 1012.74 1012.70 1012.70 1012.70 1012.67 1012.60 1012.48 1012.32 1012.14 1011.98 1011.87 1011.83 1011.86 1011.98 1012.16 1012.38 1012.62 1012.88 1013.14 1013.41 1013.70 1014.01 1014.37 1014.75 1015.16 1015.55 1015.93 1016.25 1016.51 1016.70 1016.84 1016.93 1016.99 1017.03 1017.07 1017.11 1017.12 1017.11 1017.05 1016.95 1016.81
1014.46 1014.58 1014.58 1014.48 1014.31 1014.11 1013.92 1013.75 1013.61 1013.51 1013.42 1013.32 1013.20 1013.05 1012.87 1012.66 1012.46 1012.28 1012.15 1012.08 1012.08 1012.15 1012.27 1012.43 1012.62 1012.84 1013.08 1013.35 1013.64 1013.98 1014.34 1014.73 1015.12 1015.50 1015.86 1016.16 1016.42 1016.62 1016.79 1016.92 1017.03 1017.14 1017.24 1017.32 1017.36 1017.36 1017.31 1017.19 1017.02
1015.25 1015.40 1015.44 1015.40 1015.29 1015.13 1014.94 1014.74 1014.53 1014.33 1014.12 1013.92 1013.70 1013.49 1013.27 1013.06 1012.87 1012.70 1012.58 1012.49 1012.44 1012.44 1012.48 1012.56 1012.69 1012.85 1013.06 1013.32 1013.62 1013.96 1014.33 1014.72 1015.09 1015.45 1015.77 1016.05 1016.29 1016.50 1016.69 1016.87 1017.04 1017.21 1017.36 1017.49 1017.56 1017.57 1017.51 1017.37 1017.18
1016.11 1016.30 1016.41 1016.43 1016.37 1016.23 1016.02 1015.75 1015.43 1015.09 1014.75 1014.43 1014.13 1013.87 1013.65 1013.47 1013.32 1013.20 1013.09 1013.00 1012.91 1012.84 1012.80 1012.78 1012.83 1012.93 1013.10 1013.35 1013.65 1014.00 1014.38 1014.76 1015.12 1015.45 1015.73 1015.98 1016.20 1016.40 1016.60 1016.81 1017.03 1017.25 1017.45 1017.61 1017.70 1017.71 1017.64 1017.48 1017.27
1016.97 1017.21 1017.39 1017.49 1017.48 1017.35 1017.09 1016.73 1016.27 1015.77 1015.28 1014.82 1014.43 1014.14 1013.94 1013.82 1013.74 1013.69 1013.64 1013.55 1013.44 1013.30 1013.17 1013.07 1013.03 1013.07 1013.21 1013.45 1013.76 1014.13 1014.52 1014.89 1015.23 1015.53 1015.77 1015.98 1016.16 1016.35 1016.56 1016.79 1017.04 1017.29 1017.51 1017.68 1017.78 1017.78 1017.69 1017.52 1017.28
1017.76 1018.08 1018.37 1018.55 1018.60 1018.47 1018.16 1017.67 1017.06 1016.37 1015.69 1015.09 1014.61 1014.29 1014.12 1014.06 1014.08 1014.12 1014.13 1014.07 1013.95 1013.77 1013.57 1013.39 1013.28 1013.27 1013.38 1013.61 1013.93 1014.31 1014.71 1015.08 1015.40 1015.67 1015.87 1016.04 1016.20 1016.36 1016.56 1016.80 1017.06 1017.32 1017.55 1017.72 1017.81 1017.79 1017.68 1017.49 1017.25
1018.47 1018.92 1019.33 1019.64 1019.75 1019.63 1019.24 1018.62 1017.81 1016.92 1016.04 1015.27 1014.69 1014.33 1014.17 1014.19 1014.30 1014.44 1014.53 1014.52 1014.40 1014.20 1013.94 1013.70 1013.53 1013.48 1013.57 1013.79 1014.12 1014.51 1014.91 1015.29 1015.59 1015.83 1016.00 1016.13 1016.26 1016.41 1016.60 1016.84 1017.10 1017.36 1017.59 1017.75 1017.81 1017.78 1017.65 1017.45 1017.21
1019.15 1019.75 1020.33 1020.77 1020.96 1020.84 1020.38 1019.60 1018.59 1017.47 1016.37 1015.43 1014.72 1014.30 1014.15 1014.22 1014.42 1014.65 1014.81 1014.86 1014.76 1014.55 1014.26 1013.98 1013.76 1013.68 1013.74 1013.95 1014.28 1014.67 1015.07 1015.43 1015.72 1015.93 1016.08 1016.19 1016.31 1016.45 1016.64 1016.88 1017.14 1017.40 1017.62 1017.77 1017.82 1017.78 1017.64 1017.45 1017.22
1019.85 1020.64 1021.41 1021.99 1022.26 1022.14 1021.59 1020.66 1019.44 1018.08 1016.76 1015.62 1014.77 1014.27 1014.10 1014.20 1014.47 1014.77 1015.01 1015.10 1015.03 1014.82 1014.51 1014.19 1013.94 1013.81 1013.85 1014.04 1014.35 1014.73 1015.12 1015.47 1015.74 1015.94 1016.07 1016.18 1016.29 1016.44 1016.64 1016.89 1017.17 1017.44 1017.66 1017.80 1017.85 1017.81 1017.68 1017.50 1017.31
1020.63 1021.63 1022.57 1023.29 1023.63 1023.49 1022.85 1021.76 1020.34 1018.75 1017.21 1015.88 1014.89 1014.30 1014.10 1014.21 1014.51 1014.86 1015.14 1015.28 1015.22 1015.00 1014.68 1014.32 1014.03 1013.87 1013.87 1014.03 1014.31 1014.67 1015.03 1015.36 1015.62 1015.81 1015.95 1016.06 1016.19 1016.37 1016.60 1016.88 1017.18 1017.46 1017.70 1017.85 1017.91 1017.87 1017.76 1017.62 1017.46
1021.52 1022.70 1023.79 1024.61 1024.99 1024.83 1024.09 1022.84 1021.23 1019.45 1017.72 1016.22 1015.10 1014.42 1014.17 1014.27 1014.58 1014.95 1015.25 1015.40 1015.35 1015.12 1014.77 1014.38 1014.05 1013.85 1013.80 1013.92 1014.16 1014.48 1014.81 1015.12 1015.37 1015.56 1015.72 1015.86 1016.02 1016.24 1016.51 1016.83 1017.16 1017.47 1017.72 1017.89 1017.96 1017.95 1017.87 1017.76 1017.66
1022.48 1023.79 1024.98 1025.84 1026.22 1026.00 1025.16 1023.78 1022.02 1020.08 1018.20 1016.58 1015.37 1014.62 1014.32 1014.39 1014.69 1015.06 1015.35 1015.49 1015.42 1015.17 1014.79 1014.37 1014.00 1013.75 1013.66 1013.73 1013.92 1014.20 1014.51 1014.80 1015.05 1015.25 1015.43 1015.61 1015.82 1016.08 1016.39 1016.75 1017.11 1017.44 1017.72 1017.91 1018.00 1018.01 1017.97 1017.90 1017.84
1023.41 1024.77 1025.97 1026.82 1027.15 1026.85 1025.91 1024.43 1022.56 1020.53 1018.57 1016.89 1015.63 1014.85 1014.52 1014.56 1014.83 1015.17 1015.43 1015.54 1015.44 1015.15 1014.74 1014.28 1013.88 1013.59 1013.46 1013.49 1013.65 1013.90 1014.19 1014.47 1014.72 1014.94 1015.15 1015.37 1015.62 1015.92 1016.27 1016.65 1017.04 1017.39 1017.67 1017.87 1017.99 1018.02 1018.01 1017.98 1017.96
1024.17 1025.49 1026.64 1027.40 1027.63 1027.23 1026.20 1024.65 1022.74 1020.69 1018.73 1017.06 1015.81 1015.03 1014.70 1014.72 1014.96 1015.25 1015.47 1015.52 1015.38 1015.05 1014.61 1014.13 1013.70 1013.40 1013.24 1013.25 1013.40 1013.63 1013.91 1014.19 1014.46 1014.70 1014.94 1015.19 1015.47 1015.80 1016.17 1016.56 1016.95 1017.30 1017.58 1017.78 1017.90 1017.96 1017.97 1017.97 1017.98
1024.63 1025.83 1026.83 1027.45 1027.54 1027.03 1025.94 1024.37 1022.48 1020.49 1018.61 1017.02 1015.84 1015.12 1014.81 1014.82 1015.02 1015.26 1015.42 1015.42 1015.23 1014.87 1014.41 1013.92 1013.49 1013.19 1013.04 1013.05 1013.19 1013.43 1013.72 1014.01 1014.30 1014.57 1014.83 1015.11 1015.41 1015.74 1016.11 1016.49 1016.85 1017.18 1017.44 1017.63 1017.75 1017.82 1017.85 1017.87 1017.91
1024.68 1025.69 1026.49 1026.92 1026.85 1026.24 1025.11 1023.56 1021.76 1019.89 1018.16 1016.73 1015.68 1015.05 1014.79 1014.81 1014.98 1015.17 1015.27 1015.22 1014.99 1014.61 1014.14 1013.67 1013.27 1012.99 1012.87 1012.90 1013.07 1013.33 1013.63 1013.95 1014.26 1014.55 1014.83 1015.12 1015.42 1015.74 1016.08 1016.43 1016.75 1017.04 1017.27 1017.44 1017.56 1017.63 1017.68 1017.72 1017.78
1024.28 1025.06 1025.63 1025.85 1025.63 1024.93 1023.79 1022.32 1020.65 1018.98 1017.46 1016.22 1015.34 1014.83 1014.64 1014.67 1014.83 1014.97 1015.02 1014.91 1014.66 1014.27 1013.83 1013.39 1013.03 1012.80 1012.73 1012.81 1013.01 1013.30 1013.63 1013.97 1014.30 1014.61 1014.90 1015.18 1015.47 1015.77 1016.07 1016.37 1016.65 1016.90 1017.10 1017.25 1017.36 1017.44 1017.51 1017.57 1017.64
Thickness
5693 5695 5695 5688 5672 5655 5660 5671 5677 5680 5684 5688 5690 5691 5691 5690 5689 5689 5695 5701 5704 5706 5709 5711 5712 5713 5714 5714 5715 5715 5715 5715 5716 5716 5716 5716 5716 5715 5715 5715 5715 5715 5714 5714 5714 5713 5713 5712 5711
5687 5688 5684 5672 5656 5647 5656 5668 5672 5678 5683 5684 5685 5686 5686 5684 5686 5687 5691 5695 5698 5701 5703 5705 5707 5708 5709 5709 5710 5710 5710 5711 5711 5711 5711 5711 5711 5711 5711 5711 5711 5710 5710 5710 5710 5709 5709 5708 5707
5682 5680 5669 5656 5648 5647 5660 5668 5669 5674 5677 5679 5676 5676 5678 5678 5679 5681 5684 5688 5692 5695 5697 5699 5701 5702 5703 5704 5704 5705 5705 5705 5706 5706 5706 5706 5706 5706 5706 5706 5706 5706 5705 5706 5705 5705 5705 5704 5703
5673 5665 5656 5647 5647 5652 5659 5664 5665 5666 5670 5671 5670 5668 5669 5671 5672 5675 5679 5683 5686 5688 5690 5692 5695 5696 5697 5698 5699 5699 5700 5700 5700 5701 5701 5701 5701 5701 5702 5701 5701 5701 5701 5701 5701 5700 5700 5699 5699
5662 5652 5644 5637 5643 5650 5653 5657 5660 5661 5661 5662 5663 5661 5661 5664 5666 5669 5672 5676 5678 5680 5683 5685 5688 5690 5691 5692 5693 5694 5694 5695 5695 5696 5696 5696 5696 5696 5697 5696 5697 5696 5696 5696 5695 5695 5695 5694 5694
5645 5639 5630 5629 5638 5645 5648 5652 5654 5653 5652 5653 5653 5653 5654 5656 5658 5661 5665 5667 5670 5672 5675 5677 5680 5682 5684 5686 5687 5688 5688 5689 5690 5690 5690 5690 5690 5691 5691 5691 5691 5691 5691 5690 5690 5690 5690 5689 5688
5636 5629 5626 5629 5631 5638 5644 5646 5646 5645 5644 5644 5646 5645 5647 5648 5650 5653 5656 5659 5661 5664 5667 5669 5672 5674 5676 5678 5680 5681 5682 5683 5684 5684 5685 5685 5685 5685 5685 5686 5686 5686 5685 5685 5684 5684 5684 5684 5683
5631 5624 5623 5621 5626 5632 5638 5640 5640 5638 5637 5638 5638 5636 5637 5639 5641 5644 5647 5649 5652 5654 5657 5660 5663 5666 5668 5671 5673 5674 5675 5676 5677 5678 5679 5679 5679 5679 5679 5679 5680 5680 5679 5679 5679 5679 5679 5678 5677
5628 5613 5612 5618 5622 5627 5631 5631 5632 5631 5629 5629 5629 5629 5631 5631 5633 5635 5637 5638 5641 5645 5647 5651 5654 5657 5660 5663 5665 5666 5667 5669 5670 5671 5672 5672 5672 5672 5672 5672 5673 5673 5673 5673 5673 5673 5672 5672 5671
5615 5606 5614 5620 5621 5622 5622 5622 5622 5622 5620 5619 5620 5620 5621 5621 5623 5624 5625 5627 5630 5634 5638 5642 5645 5649 5652 5654 5656 5657 5659 5660 5662 5663 5665 5665 5665 5665 5665 5665 5666 5666 5667 5666 5666 5666 5665 5665 5664
5610 5607 5613 5615 5617 5616 5615 5614 5615 5614 5611 5612 5611 5612 5612 5612 5613 5615 5616 5618 5620 5624 5629 5633 5636 5640 5643 5645 5647 5648 5650 5652 5654 5655 5657 5658 5658 5658 5658 5658 5659 5659 5660 5659 5659 5659 5658 5658 5657
5602 5603 5606 5608 5610 5608 5606 5605 5603 5604 5605 5606 5605 5604 5603 5603 5603 5605 5607 5609 5612 5615 5620 5624 5627 5631 5633 5635 5637 5639 5641 5643 5645 5647 5648 5650 5650 5651 5652 5652 5652 5652 5652 5652 5652 5651 5651 5650 5650
5595 5597 5599 5599 5599 5597 5597 5596 5594 5594 5595 5595 5595 5594 5593 5593 5594 5596 5598 5600 5603 5607 5611 5615 5617 5620 5623 5625 5627 5629 5632 5634 5636 5638 5639 5641 5642 5643 5644 5644 5644 5644 5645 5645 5644 5643 5643 5643 5643
5589 5589 5589 5590 5591 5591 5589 5586 5585 5586 5586 5585 5584 5582 5582 5583 5585 5587 5589 5591 5595 5598 5601 5605 5608 5611 5613 5615 5617 5619 5622 5624 5627 5629 5630 5632 5634 5635 5636 5636 5636 5636 5637 5637 5637 5636 5636 5635 5635
5582 5579 5579 5582 5583 5583 5582 5577 5576 5578 5577 5575 5574 5573 5573 5574 5576 5577 5580 5583 5586 5588 5592 5595 5599 5602 5604 5607 5608 5610 5613 5615 5617 5619 5621 5623 5625 5626 5627 5628 5628 5628 5628 5628 5628 5627 5628 5628 5627
5572 5567 5565 5573 5574 5574 5572 5566 5570 5569 5567 5565 5564 5563 5564 5565 5567 5569 5572 5575 5578 5580 5583 5587 5590 5593 5595 5597 5599 5601 5603 5605 5607 5609 5611 5613 5615 5616 5617 5618 5619 5620 5620 5620 5619 5618 5618 5618 5618
5555 5551 5554 5561 5565 5564 5561 5557 5561 5559 5558 5556 5555 5554 5555 5557 5559 5561 5564 5567 5569 5572 5575 5578 5581 5584 5585 5587 5589 5591 5593 5595 5597 5599 5601 5603 5605 5606 5608 5609 5609 5610 5610 5610 5610 5609 5609 5608 5608
5546 5543 5546 5548 5554 5552 5547 5547 5552 5550 5549 5547 5546 5546 5547 5549 5551 5554 5556 5559 5561 5563 5566 5569 5571 5573 5576 5578 5580 5581 5583 5585 5587 5589 5591 5593 5595 5596 5597 5599 5599 5600 5601 5600 5600 5599 5598 5598 5598
5544 5539 5537 5541 5544 5541 5538 5540 5545 5543 5540 5539 5538 5539 5540 5542 5544 5545 5547 5550 5553 5555 5557 5559 5561 5563 5566 5568 5569 5571 5573 5576 5578 5580 5582 5583 5585 5586 5587 5588 5589 5590 5590 5590 5590 5589 5588 5587 5587
5536 5532 5529 5531 5535 5533 5528 5531 5537 5537 5536 5536 5534 5533 5533 5534 5536 5538 5539 5541 5543 5545 5547 5549 5551 5553 5556 5558 5560 5562 5564 5566 5567 5569 5570 5572 5574 5576 5577 5578 5579 5580 5580 5580 5579 5579 5578 5577 5577
5530 5527 5526 5524 5524 5523 5521 5526 5531 5534 5531 5530 5529 5527 5527 5528 5528 5529 5530 5531 5533 5535 5537 5540 5542 5544 5546 5548 5550 5551 5553 5555 5557 5558 5560 5561 5564 5565 5566 5567 5568 5569 5569 5569 5569 5570 5570 5568 5566
5524 5527 5523 5521 5513 5507 5513 5509 5524 5522 5523 5524 5521 5519 5518 5519 5520 5521 5522 5523 5524 5525 5528 5530 5532 5534 5536 5538 5540 5541 5542 5544 5546 5547 5548 5550 5552 5554 5555 5556 5557 5558 5559 5559 5560 5560 5560 5559 5557
5518 5518 5514 5511 5504 5495 5498 5495 5513 5512 5515 5518 5516 5513 5511 5511 5512 5513 5514 5514 5515 5516 5517 5520 5522 5524 5526 5528 5530 5530 5531 5533 5534 5535 5537 5539 5541 5543 5545 5546 5547 5547 5548 5548 5549 5549 5550 5549 5549
5511 5506 5500 5490 5486 5486 5492 5488 5502 5504 5512 5513 5510 5507 5504 5503 5504 5504 5505 5505 5506 5506 5508 5510 5512 5514 5516 5518 5519 5519 5520 5520 5522 5523 5525 5527 5530 5531 5533 5534 5535 5536 5537 5537 5538 5539 5539 5540 5540
5503 5493 5480 5477 5468 5478 5486 5486 5496 5506 5505 5505 5502 5499 5497 5496 5495 5495 5496 5496 5497 5498 5499 5500 5503 5505 5506 5507 5508 5508 5508 5509 5510 5511 5513 5515 5517 5519 5520 5522 5523 5524 5526 5527 5527 5528 5528 5529 5529
5493 5490 5479 5477 5469 5472 5476 5479 5493 5497 5495 5495 5493 5490 5489 5488 5487 5488 5488 5488 5488 5489 5490 5491 5493 5495 5496 5497 5498 5498 5498 5498 5499 5500 5502 5504 5506 5507 5509 5511 5512 5513 5515 5516 5517 5518 5517 5518 5518
5485 5477 5479 5464 5452 5457 5466 5472 5485 5491 5489 5487 5485 5483 5481 5480 5479 5479 5479 5479 5480 5480 5481 5482 5484 5485 5486 5486 5487 5487 5487 5487 5488 5489 5490 5492 5494 5496 5497 5499 5500 5502 5504 5505 5506 5507 5507 5507 5507
5481 5472 5461 5458 5460 5464 5468 5466 5477 5483 5482 5480 5476 5474 5473 5472 5471 5470 5471 5471 5472 5473 5473 5474 5475 5475 5476 5476 5476 5476 5476 5476 5477 5477 5479 5480 5483 5484 5485 5487 5489 5491 5492 5493 5494 5495 5496 5496 5495
5467 5465 5459 5450 5451 5457 5459 5475 5479 5477 5476 5471 5468 5466 5464 5463 5462 5462 5462 5463 5464 5464 5464 5465 5465 5466 5466 5466 5466 5466 5466 5465 5465 5466 5467 5468 5470 5472 5473 5475 5477 5478 5480 5481 5482 5484 5484 5484 5484
5459 5459 5453 5453 5445 5438 5444 5465 5472 5468 5466 5463 5460 5458 5457 5456 5455 5454 5454 5454 5455 5455 5455 5455 5456 5457 5457 5457 5456 5456 5456 5455 5454 5454 5455 5456 5458 5460 5461 5462 5464 5466 5467 5469 5470 5472 5472 5472 5472